COSMOS 970 DEB *, 20327

Orbit data source: Space-Track

COSMOS 970 DEB *, 20327 is space debris in LEO originally from a launch on Wed, 21 Dec 1977 UTC launched from the Tyuratam Missile And Space Complex (TTMTR). Debris objects in space refer to the collection of defunct objects orbiting the Earth. Examples of debris include non-operational satellites, rocket bodies, and fragments generated from explosions, collisions, or faulty payload assembly.

Loading next visibility...
Identifier
20327, 1977-121BY
Orbit
LEO
Country
Flag of CISCIS
Related business
Manufacturer
Unknown
Mission
Spacecraft
Bus & Motor
Unknown
Mass
Unknown
Launch date (UTC)
1977-12-21 (48 years ago)
Launch vehicle
Unknown
Launch site
Tyuratam Missile And Space Complex (TTMTR)
Object type
Payload
Rocket body
Debris
Shape & HBR
Unknown shape, 0.1 m
Radar Cross Section
Medium (>0.1 m² and <1 m²)

Expand to show TLE details & history
Last TLE update: 16 hours ago

TLE from 16 hours ago
0 COSMOS 970 DEB *
1 20327U 77121BY  26171.23263183  .00120438  00000-0  13957-2 0  9992
2 20327  65.7590 101.4817 0089582  14.1108 346.2515 15.56368426760912
Epoch: 2026-06-20T05:34Z
TLE epoch observation values (Epoch: 2026-06-20T05:34:59.390Z)
Latitude
-0.00006°
Longitude
109.28401°
Altitude
341.388 km
Speed
7.738 km/s
True Right ascension
06h 45m 55s
True Declination
0° 00' 00"
Sunlit
Object was in daylight at epoch
Visualization orbit readout
Latitude
Unknown
Longitude
Unknown
Altitude
Unknown
Speed
Unknown
Apparent Right ascension
Unknown
Apparent Declination
Unknown
Sunlit
N/A
Visualization observer readout
Local Sidereal Time
08:33:45
Azimuth
Unknown
Elevation
Unknown
Doppler factor
Unknown
Orbital elements
Apogee altitude
457.265 km
Perigee altitude
335.886 km
Semi-major axis
6,774.713 km
Eccentricity
0.00896
Inclination
65.759°
RAAN
101.4817°
Arg. of periapsis
14.1108°
True anomaly
346.00485°
Mean anomaly
346.2515°
Eccentric anomaly
346.12845°
Mean motion
3.8923 °/min
Orbital period
92.49 mins
BSTAR
0.0013957
Loading maneuver chart data...
Computing Atmospheric mass density...
Loading historical data...
Loading historical data...
Loading historical data...
Loading historical data...
Loading historical data...
Loading historical data...
Loading historical data...

Documentation

Showing up to 5 results
|